COSMOS 1275 DEB, 13021

Orbit data source: Space-Track

COSMOS 1275 DEB, 13021 is space debris in LEO originally from a launch on Thu, 04 Jun 1981 UTC launched from the Plesetsk Missile And Space Complex (PKMTR). Debris objects in space refer to the collection of defunct objects orbiting the Earth. Examples of debris include non-operational satellites, rocket bodies, and fragments generated from explosions, collisions, or faulty payload assembly.

Loading next visibility...
Identifier
13021, 1981-053ET
Orbit
LEO
Country
Flag of CISCIS
Related business
Manufacturer
Unknown
Mission
Spacecraft
Bus & Motor
Unknown
Mass
Unknown
Launch date (UTC)
1981-06-04 (45 years ago)
Launch vehicle
Unknown
Launch site
Plesetsk Missile And Space Complex (PKMTR)
Object type
Payload
Rocket body
Debris
Shape & HBR
Unknown shape, 0.1 m
Radar Cross Section
Small (<0.1 m²)

Expand to show TLE details & history
Last TLE update: 12 hours ago

TLE from 12 hours ago
0 COSMOS 1275 DEB
1 13021U 81053ET  26118.61057751  .00001423  00000-0  85557-3 0  9997
2 13021  83.1432 325.9252 0021667 340.2160  74.4740 14.06067680252717
Epoch: 2026-04-28T14:39Z
TLE epoch observation values (Epoch: 2026-04-28T14:39:13.896Z)
Latitude
54.44859°
Longitude
-100.83076°
Altitude
877.679 km
Speed
7.421 km/s
True Right ascension
22h 22m 14s
True Declination
54° 17' 18"
Sunlit
Object was in daylight at epoch
Visualization orbit readout
Latitude
Unknown
Longitude
Unknown
Altitude
Unknown
Speed
Unknown
Apparent Right ascension
Unknown
Apparent Declination
Unknown
Sunlit
N/A
Visualization observer readout
Local Sidereal Time
10:25:51
Azimuth
Unknown
Elevation
Unknown
Doppler factor
Unknown
Orbital elements
Apogee altitude
885.662 km
Perigee altitude
854.253 km
Semi-major axis
7,248.095 km
Eccentricity
0.00217
Inclination
83.1432°
RAAN
325.9252°
Arg. of periapsis
340.216°
True anomaly
74.7134°
Mean anomaly
74.474°
Eccentric anomaly
74.59368°
Mean motion
3.51728 °/min
Orbital period
102.35 mins
BSTAR
0.00085557
Loading maneuver chart data...
Computing Atmospheric mass density...
Loading historical data...
Loading historical data...
Loading historical data...
Loading historical data...
Loading historical data...
Loading historical data...
Loading historical data...

Documentation

Showing up to 5 results
|